Time,TemperatureF,DewpointF,PressureIn,WindDirection,WindDirectionDegrees,WindSpeedMPH,WindSpeedGustMPH,Humidity,HourlyPrecipIn,Conditions,Clouds,dailyrainin,SoftwareType,DateUTC
2013-07-24 07:50:00,86.7,75.8,29.95,ESE,113,1.0,4.0,70,0.00,CLR,,0.00,WeatherDisplay:10.37,2013-07-24 05:50:00,
2013-07-24 07:55:00,86.7,75.8,29.95,East,92,1.0,4.0,70,0.00,CLR,,0.00,WeatherDisplay:10.37,2013-07-24 05:55:00,
2013-07-24 08:00:00,86.7,75.8,29.95,East,90,1.0,4.0,70,0.00,CLR,,0.00,WeatherDisplay:10.37,2013-07-24 06:00:00,
2013-07-24 08:05:00,87.6,76.2,29.95,NE,46,2.0,4.0,69,0.00,CLR,,0.00,WeatherDisplay:10.37,2013-07-24 06:05:00,
2013-07-24 08:10:00,87.6,76.2,29.95,North,4,2.0,4.0,69,0.00,CLR,,0.00,WeatherDisplay:10.37,2013-07-24 06:10:00,
2013-07-24 08:15:00,87.6,76.2,29.95,North,0,2.0,4.0,69,0.00,CLR,,0.00,WeatherDisplay:10.37,2013-07-24 06:15:00,
2013-07-24 08:20:00,87.6,75.3,29.95,North,0,2.0,5.0,67,0.00,CLR,,0.00,WeatherDisplay:10.37,2013-07-24 06:20:00,
2013-07-24 08:25:00,87.6,75.3,29.95,South,180,2.0,5.0,67,0.00,CLR,,0.00,WeatherDisplay:10.37,2013-07-24 06:25:00,
2013-07-24 08:30:00,87.6,75.3,29.95,South,180,2.0,5.0,67,0.00,CLR,,0.00,WeatherDisplay:10.37,2013-07-24 06:30:00,
2013-07-24 08:35:00,88.0,76.1,29.95,SSE,154,1.0,5.0,68,0.00,CLR,,0.00,WeatherDisplay:10.37,2013-07-24 06:35:00,
2013-07-24 08:40:00,88.0,76.1,29.95,NE,52,1.0,4.0,68,0.00,CLR,,0.00,WeatherDisplay:10.37,2013-07-24 06:40:00,
2013-07-24 08:45:00,88.0,76.1,29.95,NE,45,1.0,4.0,68,0.00,CLR,,0.00,WeatherDisplay:10.37,2013-07-24 06:45:00,
2013-07-24 08:50:00,88.7,76.3,29.95,East,89,2.0,7.0,67,0.00,CLR,,0.00,WeatherDisplay:10.37,2013-07-24 06:50:00,
2013-07-24 08:55:00,88.7,76.3,29.95,SE,131,2.0,7.0,67,0.00,CLR,,0.00,WeatherDisplay:10.37,2013-07-24 06:55:00,
2013-07-24 09:00:00,88.7,76.3,29.95,SE,135,2.0,7.0,67,0.00,CLR,,0.00,WeatherDisplay:10.37,2013-07-24 07:00:00,
2013-07-24 09:05:00,88.2,75.4,29.95,SE,135,3.0,8.0,66,0.00,CLR,,0.00,WeatherDisplay:10.37,2013-07-24 07:05:00,
2013-07-24 09:10:00,88.2,75.4,29.95,SE,135,3.0,8.0,66,0.00,CLR,,0.00,WeatherDisplay:10.37,2013-07-24 07:10:00,
2013-07-24 09:15:00,88.2,75.4,29.95,SE,135,3.0,8.0,66,0.00,CLR,,0.00,WeatherDisplay:10.37,2013-07-24 07:15:00,
2013-07-24 09:20:00,88.0,75.6,29.94,SSE,167,3.0,8.0,67,0.00,CLR,,0.00,WeatherDisplay:10.37,2013-07-24 07:20:00,
2013-07-24 09:25:00,88.0,75.6,29.94,West,264,3.0,5.0,67,0.00,CLR,,0.00,WeatherDisplay:10.37,2013-07-24 07:25:00,
2013-07-24 09:30:00,88.0,75.6,29.94,West,270,3.0,5.0,67,0.00,CLR,,0.00,WeatherDisplay:10.37,2013-07-24 07:30:00,
2013-07-24 09:35:00,88.2,76.3,29.95,WNW,290,3.0,8.0,68,0.00,CLR,,0.00,WeatherDisplay:10.37,2013-07-24 07:35:00,
2013-07-24 09:40:00,88.2,76.3,29.95,NW,312,3.0,8.0,68,0.00,CLR,,0.00,WeatherDisplay:10.37,2013-07-24 07:40:00,
2013-07-24 09:45:00,88.2,76.3,29.95,NW,315,3.0,8.0,68,0.00,CLR,,0.00,WeatherDisplay:10.37,2013-07-24 07:45:00,
2013-07-24 09:50:00,88.7,76.8,29.94,WSW,244,6.0,12.0,68,0.00,CLR,,0.00,WeatherDisplay:10.37,2013-07-24 07:50:00,
2013-07-24 09:55:00,88.7,76.8,29.94,South,183,6.0,12.0,68,0.00,CLR,,0.00,WeatherDisplay:10.37,2013-07-24 07:55:00,
2013-07-24 10:00:00,88.7,76.8,29.94,South,180,6.0,12.0,68,0.00,CLR,,0.00,WeatherDisplay:10.37,2013-07-24 08:00:00,
2013-07-24 10:05:00,88.2,76.7,29.94,SSE,162,3.0,12.0,69,0.00,CLR,,0.00,WeatherDisplay:10.37,2013-07-24 08:05:00,
2013-07-24 10:10:00,88.2,76.7,29.94,NE,55,3.0,4.0,69,0.00,CLR,,0.00,WeatherDisplay:10.37,2013-07-24 08:10:00,
2013-07-24 10:15:00,88.2,76.7,29.94,NE,45,3.0,4.0,69,0.00,CLR,,0.00,WeatherDisplay:10.37,2013-07-24 08:15:00,
2013-07-24 10:16:00,82.6,75.0,29.96,SE,135,10.7,10.7,78,0.00,CLR,,0.00,WeatherDisplay:10.37,2013-07-24 08:16:00,
2013-07-24 10:17:00,82.6,75.0,29.96,SE,135,4.6,4.6,78,0.00,CLR,,0.00,WeatherDisplay:10.37,2013-07-24 08:17:00,
2013-07-24 10:20:00,88.2,77.1,29.95,ENE,72,2.0,6.0,70,0.00,CLR,,0.00,WeatherDisplay:10.37,2013-07-24 08:20:00,
2013-07-24 10:22:00,82.8,75.2,29.96,SE,135,3.5,3.5,78,0.00,CLR,,0.00,WeatherDisplay:10.37,2013-07-24 08:22:00,
2013-07-24 10:25:00,88.2,77.1,29.95,South,173,2.0,6.0,70,0.00,CLR,,0.00,WeatherDisplay:10.37,2013-07-24 08:25:00,
2013-07-24 10:27:00,82.9,75.4,29.96,South,180,4.6,4.6,78,0.00,CLR,,0.00,WeatherDisplay:10.37,2013-07-24 08:27:00,
2013-07-24 10:30:00,88.2,77.1,29.95,South,180,2.0,6.0,70,0.00,CLR,,0.00,WeatherDisplay:10.37,2013-07-24 08:30:00,
2013-07-24 10:32:00,82.9,75.4,29.96,SE,135,3.5,3.5,78,0.00,CLR,,0.00,WeatherDisplay:10.37,2013-07-24 08:32:00,
2013-07-24 10:35:00,89.4,77.9,29.94,South,180,5.0,8.0,69,0.00,CLR,,0.00,WeatherDisplay:10.37,2013-07-24 08:35:00,
2013-07-24 10:37:00,82.9,75.0,29.96,SE,135,3.5,0.0,77,0.00,CLR,,0.00,WeatherDisplay:10.37,2013-07-24 08:37:00,
2013-07-24 10:40:00,89.4,77.9,29.94,South,180,5.0,8.0,69,0.00,CLR,,0.00,WeatherDisplay:10.37,2013-07-24 08:40:00,
2013-07-24 10:42:00,83.3,75.3,29.96,ESE,112,3.5,3.5,77,0.00,CLR,,0.00,WeatherDisplay:10.37,2013-07-24 08:42:00,
2013-07-24 10:45:00,89.4,77.9,29.94,South,180,5.0,8.0,69,0.00,CLR,,0.00,WeatherDisplay:10.37,2013-07-24 08:45:00,
2013-07-24 10:47:00,83.8,75.9,29.96,South,180,4.6,0.0,77,0.00,CLR,,0.00,WeatherDisplay:10.37,2013-07-24 08:47:00,
2013-07-24 10:50:00,89.8,77.4,29.94,SSW,193,1.0,8.0,67,0.00,CLR,,0.00,WeatherDisplay:10.37,2013-07-24 08:50:00,
2013-07-24 10:52:00,84.4,76.4,29.95,ESE,112,4.6,4.6,77,0.00,CLR,,0.00,WeatherDisplay:10.37,2013-07-24 08:52:00,
2013-07-24 10:55:00,89.8,77.4,29.94,WSW,252,1.0,4.0,67,0.00,CLR,,0.00,WeatherDisplay:10.37,2013-07-24 08:55:00,
2013-07-24 10:57:00,84.4,75.6,29.95,SSE,158,8.1,8.1,75,0.00,CLR,,0.00,WeatherDisplay:10.37,2013-07-24 08:57:00,
2013-07-24 11:00:00,89.8,77.4,29.94,West,270,1.0,4.0,67,0.00,CLR,,0.00,WeatherDisplay:10.37,2013-07-24 09:00:00,
2013-07-24 11:02:00,84.4,75.6,29.95,East,90,5.8,5.8,75,0.00,CLR,,0.00,WeatherDisplay:10.37,2013-07-24 09:02:00,
2013-07-24 11:05:00,89.8,77.4,29.94,SW,226,2.0,4.0,67,0.00,CLR,,0.00,WeatherDisplay:10.37,2013-07-24 09:05:00,
2013-07-24 11:07:00,84.7,75.9,29.95,South,180,3.5,3.5,75,0.00,CLR,,0.00,WeatherDisplay:10.37,2013-07-24 09:07:00,
2013-07-24 11:10:00,89.8,77.4,29.94,South,184,2.0,4.0,67,0.00,CLR,,0.00,WeatherDisplay:10.37,2013-07-24 09:10:00,
2013-07-24 11:12:00,85.5,76.6,29.95,East,90,6.9,6.9,75,0.00,CLR,,0.00,WeatherDisplay:10.37,2013-07-24 09:12:00,
2013-07-24 11:15:00,89.8,77.4,29.94,South,180,2.0,4.0,67,0.00,CLR,,0.00,WeatherDisplay:10.37,2013-07-24 09:15:00,
2013-07-24 11:17:00,86.0,76.7,29.95,SE,135,5.8,5.8,74,0.00,CLR,,0.00,WeatherDisplay:10.37,2013-07-24 09:17:00,
2013-07-24 11:20:00,88.0,76.5,29.93,ESE,105,6.0,11.0,69,0.00,CLR,,0.00,WeatherDisplay:10.37,2013-07-24 09:20:00,
2013-07-24 11:22:00,86.2,76.5,29.95,SE,135,4.6,4.6,73,0.00,CLR,,0.00,WeatherDisplay:10.37,2013-07-24 09:22:00,
2013-07-24 11:25:00,88.0,76.5,29.93,ENE,71,6.0,11.0,69,0.00,CLR,,0.00,WeatherDisplay:10.37,2013-07-24 09:25:00,
2013-07-24 11:27:00,86.0,75.9,29.95,SW,225,4.6,4.6,72,0.00,CLR,,0.00,WeatherDisplay:10.37,2013-07-24 09:27:00,
2013-07-24 11:30:00,88.0,76.5,29.93,ENE,68,6.0,11.0,69,0.00,CLR,,0.00,WeatherDisplay:10.37,2013-07-24 09:30:00,
2013-07-24 11:32:00,85.8,75.7,29.95,North,0,3.5,3.5,72,0.00,CLR,,0.00,WeatherDisplay:10.37,2013-07-24 09:32:00,
2013-07-24 11:35:00,87.1,76.5,29.93,East,101,5.0,11.0,71,0.00,CLR,,0.00,WeatherDisplay:10.37,2013-07-24 09:35:00,
2013-07-24 11:37:00,86.2,76.1,29.95,West,270,5.8,5.8,72,0.00,CLR,,0.00,WeatherDisplay:10.37,2013-07-24 09:37:00,
2013-07-24 11:40:00,87.1,76.5,29.93,SSW,196,5.0,8.0,71,0.00,CLR,,0.00,WeatherDisplay:10.37,2013-07-24 09:40:00,
2013-07-24 11:42:00,86.2,76.1,29.95,South,180,5.8,5.8,72,0.00,CLR,,0.00,WeatherDisplay:10.37,2013-07-24 09:42:00,
2013-07-24 11:45:00,87.1,76.5,29.93,SSW,202,5.0,8.0,71,0.00,CLR,,0.00,WeatherDisplay:10.37,2013-07-24 09:45:00,
2013-07-24 11:47:00,86.2,75.7,29.95,East,90,5.8,5.8,71,0.00,CLR,,0.00,WeatherDisplay:10.37,2013-07-24 09:47:00,
2013-07-24 11:50:00,87.6,77.5,29.93,SW,222,3.0,8.0,72,0.00,CLR,,0.00,WeatherDisplay:10.37,2013-07-24 09:50:00,
2013-07-24 11:55:00,87.6,77.5,29.93,West,262,3.0,5.0,72,0.00,CLR,,0.00,WeatherDisplay:10.37,2013-07-24 09:55:00,
2013-07-24 12:00:00,87.6,77.5,29.93,West,270,3.0,5.0,72,0.00,CLR,,0.00,WeatherDisplay:10.37,2013-07-24 10:00:00,
2013-07-24 12:05:00,87.6,77.0,29.94,West,259,1.0,8.0,71,0.00,CLR,,0.00,WeatherDisplay:10.37,2013-07-24 10:05:00,
2013-07-24 12:10:00,87.6,77.0,29.94,SW,233,1.0,8.0,71,0.00,CLR,,0.00,WeatherDisplay:10.37,2013-07-24 10:10:00,
2013-07-24 12:15:00,87.6,77.0,29.94,SW,225,1.0,8.0,71,0.00,CLR,,0.00,WeatherDisplay:10.37,2013-07-24 10:15:00,
2013-07-24 12:20:00,88.0,77.0,29.94,WSW,243,1.0,8.0,70,0.00,CLR,,0.00,WeatherDisplay:10.37,2013-07-24 10:20:00,
2013-07-24 12:25:00,88.0,77.0,29.94,West,266,1.0,4.0,70,0.00,CLR,,0.00,WeatherDisplay:10.37,2013-07-24 10:25:00,
2013-07-24 12:30:00,88.0,77.0,29.94,West,270,1.0,4.0,70,0.00,CLR,,0.00,WeatherDisplay:10.37,2013-07-24 10:30:00,
2013-07-24 12:35:00,88.0,77.0,29.94,WSW,244,3.0,8.0,70,0.00,CLR,,0.00,WeatherDisplay:10.37,2013-07-24 10:35:00,
2013-07-24 16:38:00,88.0,77.0,29.94,SW,225,8.1,8.1,70,0.00,CLR,,0.00,WeatherDisplay:10.37,2013-07-24 14:38:00,
2013-07-24 16:43:00,88.2,76.7,29.94,West,270,8.1,8.1,69,0.00,CLR,,0.00,WeatherDisplay:10.37,2013-07-24 14:43:00,
2013-07-24 16:48:00,88.2,76.3,29.93,WSW,248,10.4,10.4,68,0.00,CLR,,0.00,WeatherDisplay:10.37,2013-07-24 14:48:00,
2013-07-24 16:53:00,88.0,75.6,29.94,WNW,292,8.1,8.1,67,0.00,CLR,,0.00,WeatherDisplay:10.37,2013-07-24 14:53:00,
2013-07-24 16:58:00,88.3,76.0,29.93,NW,315,11.5,11.5,67,0.00,CLR,,0.00,WeatherDisplay:10.37,2013-07-24 14:58:00,
2013-07-24 17:03:00,88.5,76.2,29.94,SW,225,6.9,6.9,67,0.00,CLR,,0.00,WeatherDisplay:10.37,2013-07-24 15:03:00,
2013-07-24 17:08:00,88.9,76.0,29.94,WSW,248,8.1,8.1,66,0.00,CLR,,0.00,WeatherDisplay:10.37,2013-07-24 15:08:00,
2013-07-24 17:13:00,88.9,75.6,29.94,West,270,5.8,5.8,65,0.00,CLR,,0.00,WeatherDisplay:10.37,2013-07-24 15:13:00,
2013-07-24 17:15:00,81.1,73.6,29.95,WNW,294,1.0,2.0,78,0.00,CLR,,0.00,WeatherDisplay:10.37,2013-07-24 15:15:00,
2013-07-24 17:18:00,88.7,75.0,29.93,NW,315,8.1,8.1,64,0.00,CLR,,0.00,WeatherDisplay:10.37,2013-07-24 15:18:00,
2013-07-24 17:20:00,81.1,73.6,29.95,SW,225,1.0,2.0,78,0.00,CLR,,0.00,WeatherDisplay:10.37,2013-07-24 15:20:00,
2013-07-24 17:23:00,88.7,75.0,29.93,WSW,248,5.8,5.8,64,0.00,CLR,,0.00,WeatherDisplay:10.37,2013-07-24 15:23:00,
2013-07-24 17:25:00,81.1,73.6,29.95,SW,225,1.0,2.0,78,0.00,CLR,,0.00,WeatherDisplay:10.37,2013-07-24 15:25:00,
2013-07-24 17:28:00,89.2,75.5,29.93,South,180,5.8,5.8,64,0.00,CLR,,0.00,WeatherDisplay:10.37,2013-07-24 15:28:00,
2013-07-24 17:30:00,81.1,73.6,29.96,West,270,1.0,2.0,78,0.00,CLR,,0.00,WeatherDisplay:10.37,2013-07-24 15:30:00,
2013-07-24 17:33:00,89.1,74.8,29.93,SW,225,5.8,5.8,63,0.00,CLR,,0.00,WeatherDisplay:10.37,2013-07-24 15:33:00,
2013-07-24 17:35:00,81.1,73.6,29.96,NW,315,1.0,2.0,78,0.00,CLR,,0.00,WeatherDisplay:10.37,2013-07-24 15:35:00,
2013-07-24 17:38:00,89.2,75.0,29.93,SE,135,5.8,5.8,63,0.00,CLR,,0.00,WeatherDisplay:10.37,2013-07-24 15:38:00,
2013-07-24 17:40:00,81.1,73.6,29.96,NW,315,1.0,2.0,78,0.00,CLR,,0.00,WeatherDisplay:10.37,2013-07-24 15:40:00,
2013-07-24 17:43:00,89.4,75.2,29.93,WSW,248,3.5,3.5,63,0.00,CLR,,0.00,WeatherDisplay:10.37,2013-07-24 15:43:00,
2013-07-24 17:45:00,81.0,73.8,29.97,WNW,292,1.0,2.0,79,0.00,CLR,,0.00,WeatherDisplay:10.37,2013-07-24 15:45:00,
2013-07-24 17:48:00,89.4,75.2,29.93,South,180,5.8,5.8,63,0.00,CLR,,0.00,WeatherDisplay:10.37,2013-07-24 15:48:00,
2013-07-24 17:50:00,81.0,73.8,29.97,West,270,1.0,2.0,79,0.00,CLR,,0.00,WeatherDisplay:10.37,2013-07-24 15:50:00,
2013-07-24 17:53:00,88.9,75.6,29.93,SE,135,5.8,5.8,65,0.00,CLR,,0.00,WeatherDisplay:10.37,2013-07-24 15:53:00,
2013-07-24 17:55:00,81.0,73.8,29.97,West,270,1.0,2.0,79,0.00,CLR,,0.00,WeatherDisplay:10.37,2013-07-24 15:55:00,
2013-07-24 17:59:00,88.5,75.2,29.93,WNW,292,5.8,5.8,65,0.00,CLR,,0.00,WeatherDisplay:10.37,2013-07-24 15:59:00,
2013-07-24 18:00:00,80.8,73.7,29.96,East,90,0.0,2.0,79,0.00,CLR,,0.00,WeatherDisplay:10.37,2013-07-24 16:00:00,
2013-07-24 18:04:00,88.5,74.8,29.93,SW,225,5.4,5.4,64,0.00,CLR,,0.00,WeatherDisplay:10.37,2013-07-24 16:04:00,
2013-07-24 18:05:00,80.8,73.7,29.96,East,90,0.0,2.0,79,0.00,CLR,,0.00,WeatherDisplay:10.37,2013-07-24 16:05:00,
2013-07-24 18:09:00,88.5,74.8,29.92,SW,225,8.1,8.1,64,0.00,CLR,,0.00,WeatherDisplay:10.37,2013-07-24 16:09:00,
2013-07-24 18:10:00,80.8,73.7,29.96,East,90,0.0,2.0,79,0.00,CLR,,0.00,WeatherDisplay:10.37,2013-07-24 16:10:00,
2013-07-24 18:14:00,88.3,74.6,29.92,NW,315,8.1,8.1,64,0.00,CLR,,0.00,WeatherDisplay:10.37,2013-07-24 16:14:00,
2013-07-24 18:15:00,80.6,73.5,29.96,ESE,120,1.0,2.0,79,0.00,CLR,,0.00,WeatherDisplay:10.37,2013-07-24 16:15:00,
2013-07-24 18:19:00,88.2,74.4,29.92,West,270,6.9,6.9,64,0.00,CLR,,0.00,WeatherDisplay:10.37,2013-07-24 16:19:00,
2013-07-24 18:20:00,80.6,73.5,29.96,South,180,1.0,2.0,79,0.00,CLR,,0.00,WeatherDisplay:10.37,2013-07-24 16:20:00,
2013-07-24 18:24:00,88.0,74.3,29.93,SW,225,5.8,5.8,64,0.00,CLR,,0.00,WeatherDisplay:10.37,2013-07-24 16:24:00,
2013-07-24 18:25:00,80.6,73.5,29.96,South,180,1.0,2.0,79,0.00,CLR,,0.00,WeatherDisplay:10.37,2013-07-24 16:25:00,
2013-07-24 18:29:00,87.6,74.4,29.93,West,270,8.1,8.1,65,0.00,CLR,,0.00,WeatherDisplay:10.37,2013-07-24 16:29:00,
2013-07-24 18:30:00,80.2,73.5,29.96,South,180,1.0,2.0,80,0.00,CLR,,0.00,WeatherDisplay:10.37,2013-07-24 16:30:00,
2013-07-24 18:34:00,87.4,74.2,29.93,West,270,10.4,10.4,65,0.00,CLR,,0.00,WeatherDisplay:10.37,2013-07-24 16:34:00,
2013-07-24 18:35:00,80.2,73.5,29.96,South,180,1.0,2.0,80,0.00,CLR,,0.00,WeatherDisplay:10.37,2013-07-24 16:35:00,
2013-07-24 18:39:00,87.1,74.3,29.93,WNW,292,6.9,6.9,66,0.00,CLR,,0.00,WeatherDisplay:10.37,2013-07-24 16:39:00,
2013-07-24 18:40:00,80.2,73.5,29.96,South,180,1.0,2.0,80,0.00,CLR,,0.00,WeatherDisplay:10.37,2013-07-24 16:40:00,
2013-07-24 18:44:00,86.9,74.6,29.93,SE,135,8.1,8.1,67,0.00,CLR,,0.00,WeatherDisplay:10.37,2013-07-24 16:44:00,
2013-07-24 18:45:00,80.2,73.9,29.96,SSE,151,0.0,2.0,81,0.00,CLR,,0.00,WeatherDisplay:10.37,2013-07-24 16:45:00,
2013-07-24 18:49:00,86.5,74.7,29.93,West,270,11.5,11.5,68,0.00,CLR,,0.00,WeatherDisplay:10.37,2013-07-24 16:49:00,
2013-07-24 18:50:00,80.2,73.9,29.96,SE,135,0.0,2.0,81,0.00,CLR,,0.00,WeatherDisplay:10.37,2013-07-24 16:50:00,
2013-07-24 18:54:00,86.2,74.8,29.93,SW,225,9.2,9.2,69,0.00,CLR,,0.00,WeatherDisplay:10.37,2013-07-24 16:54:00,
2013-07-24 18:55:00,80.2,73.9,29.96,SE,135,0.0,2.0,81,0.00,CLR,,0.00,WeatherDisplay:10.37,2013-07-24 16:55:00,
2013-07-24 18:59:00,85.8,74.9,29.92,NW,315,8.1,8.1,70,0.00,CLR,,0.00,WeatherDisplay:10.37,2013-07-24 16:59:00,
2013-07-24 19:00:00,80.2,73.9,29.97,SSE,165,1.0,2.0,81,0.00,CLR,,0.00,WeatherDisplay:10.37,2013-07-24 17:00:00,
2013-07-24 19:04:00,85.6,75.2,29.93,NW,315,8.1,8.1,71,0.00,CLR,,0.00,WeatherDisplay:10.37,2013-07-24 17:04:00,
2013-07-24 19:05:00,80.2,73.9,29.97,SW,225,1.0,2.0,81,0.00,CLR,,0.00,WeatherDisplay:10.37,2013-07-24 17:05:00,
2013-07-24 19:09:00,85.3,74.8,29.93,West,270,9.2,9.2,71,0.00,CLR,,0.00,WeatherDisplay:10.37,2013-07-24 17:09:00,
2013-07-24 19:10:00,80.2,73.9,29.97,SW,225,1.0,2.0,81,0.00,CLR,,0.00,WeatherDisplay:10.37,2013-07-24 17:10:00,
2013-07-24 19:14:00,84.9,74.5,29.93,WSW,248,8.1,8.1,71,0.00,CLR,,0.00,WeatherDisplay:10.37,2013-07-24 17:14:00,
2013-07-24 19:15:00,80.1,73.7,29.97,SW,225,0.0,1.0,81,0.00,CLR,,0.00,WeatherDisplay:10.37,2013-07-24 17:15:00,
2013-07-24 19:19:00,84.6,74.5,29.94,West,270,10.4,10.4,72,0.00,CLR,,0.00,WeatherDisplay:10.37,2013-07-24 17:19:00,
2013-07-24 19:20:00,80.1,73.7,29.97,SW,225,0.0,1.0,81,0.00,CLR,,0.00,WeatherDisplay:10.37,2013-07-24 17:20:00,
2013-07-24 19:24:00,84.4,74.4,29.94,South,180,5.8,5.8,72,0.00,CLR,,0.00,WeatherDisplay:10.37,2013-07-24 17:24:00,
2013-07-24 19:25:00,80.1,73.7,29.97,SW,225,0.0,1.0,81,0.00,CLR,,0.00,WeatherDisplay:10.37,2013-07-24 17:25:00,
2013-07-24 19:29:00,84.4,74.4,29.94,West,270,8.1,8.1,72,0.00,CLR,,0.00,WeatherDisplay:10.37,2013-07-24 17:29:00,
2013-07-24 19:30:00,80.1,73.7,29.97,WSW,247,0.0,1.0,81,0.00,CLR,,0.00,WeatherDisplay:10.37,2013-07-24 17:30:00,
2013-07-24 19:34:00,84.2,74.2,29.94,West,270,6.9,6.9,72,0.00,CLR,,0.00,WeatherDisplay:10.37,2013-07-24 17:34:00,
2013-07-24 19:35:00,80.1,73.7,29.97,West,270,0.0,1.0,81,0.00,CLR,,0.00,WeatherDisplay:10.37,2013-07-24 17:35:00,
2013-07-24 19:39:00,84.2,74.6,29.94,West,270,5.8,5.8,73,0.00,CLR,,0.00,WeatherDisplay:10.37,2013-07-24 17:39:00,
2013-07-24 19:40:00,80.1,73.7,29.97,West,270,0.0,1.0,81,0.00,CLR,,0.00,WeatherDisplay:10.37,2013-07-24 17:40:00,
2013-07-24 19:44:00,84.0,74.4,29.94,WSW,248,4.6,0.0,73,0.00,CLR,,0.00,WeatherDisplay:10.37,2013-07-24 17:44:00,
2013-07-24 19:45:00,79.9,73.9,29.97,West,270,0.0,2.0,82,0.00,CLR,,0.00,WeatherDisplay:10.37,2013-07-24 17:45:00,
2013-07-24 19:49:00,84.0,74.4,29.94,NW,315,5.8,5.8,73,0.00,CLR,,0.00,WeatherDisplay:10.37,2013-07-24 17:49:00,
2013-07-24 19:50:00,79.9,73.9,29.97,West,270,0.0,2.0,82,0.00,CLR,,0.00,WeatherDisplay:10.37,2013-07-24 17:50:00,
2013-07-24 19:54:00,83.7,74.1,29.94,West,270,5.8,5.8,73,0.00,CLR,,0.00,WeatherDisplay:10.37,2013-07-24 17:54:00,
2013-07-24 19:55:00,79.9,73.9,29.97,West,270,0.0,2.0,82,0.00,CLR,,0.00,WeatherDisplay:10.37,2013-07-24 17:55:00,
2013-07-24 19:59:00,83.3,74.1,29.94,West,270,5.8,5.8,74,0.00,CLR,,0.00,WeatherDisplay:10.37,2013-07-24 17:59:00,
2013-07-24 20:00:00,79.7,73.3,29.98,WSW,247,0.0,1.0,81,0.00,CLR,,0.00,WeatherDisplay:10.37,2013-07-24 18:00:00,
2013-07-24 20:04:00,83.1,74.4,29.95,West,270,5.8,5.8,75,0.00,CLR,,0.00,WeatherDisplay:10.37,2013-07-24 18:04:00,
2013-07-24 20:05:00,79.7,73.3,29.98,SW,225,0.0,1.0,81,0.00,CLR,,0.00,WeatherDisplay:10.37,2013-07-24 18:05:00,
2013-07-24 20:09:00,82.8,74.0,29.95,West,270,4.6,4.6,75,0.00,CLR,,0.00,WeatherDisplay:10.37,2013-07-24 18:09:00,
2013-07-24 20:10:00,79.7,73.3,29.98,SW,225,0.0,1.0,81,0.00,CLR,,0.00,WeatherDisplay:10.37,2013-07-24 18:10:00,
2013-07-24 20:14:00,82.8,74.4,29.94,West,270,4.6,4.6,76,0.00,CLR,,0.00,WeatherDisplay:10.37,2013-07-24 18:14:00,
2013-07-24 20:15:00,79.7,73.7,29.98,South,180,0.0,2.0,82,0.00,CLR,,0.00,WeatherDisplay:10.37,2013-07-24 18:15:00,
2013-07-24 20:19:00,82.4,74.1,29.95,SW,225,4.5,4.5,76,0.00,CLR,,0.00,WeatherDisplay:10.37,2013-07-24 18:19:00,
2013-07-24 20:20:00,79.7,73.7,29.98,SE,135,0.0,2.0,82,0.00,CLR,,0.00,WeatherDisplay:10.37,2013-07-24 18:20:00,
2013-07-24 20:24:00,82.2,74.3,29.95,WSW,248,3.5,3.5,77,0.00,CLR,,0.00,WeatherDisplay:10.37,2013-07-24 18:24:00,
2013-07-24 20:25:00,79.7,73.7,29.98,SE,135,0.0,2.0,82,0.00,CLR,,0.00,WeatherDisplay:10.37,2013-07-24 18:25:00,
2013-07-24 20:29:00,82.2,74.3,29.95,West,270,3.5,3.5,77,0.00,CLR,,0.00,WeatherDisplay:10.37,2013-07-24 18:29:00,
2013-07-24 20:30:00,79.7,73.7,29.98,South,170,1.0,2.0,82,0.00,CLR,,0.00,WeatherDisplay:10.37,2013-07-24 18:30:00,
2013-07-24 20:34:00,82.0,74.1,29.95,WNW,292,3.8,3.8,77,0.00,CLR,,0.00,WeatherDisplay:10.37,2013-07-24 18:34:00,
2013-07-24 20:35:00,79.7,73.7,29.98,West,270,1.0,2.0,82,0.00,CLR,,0.00,WeatherDisplay:10.37,2013-07-24 18:35:00,
2013-07-24 20:39:00,81.9,74.3,29.95,NW,315,6.9,6.9,78,0.00,CLR,,0.00,WeatherDisplay:10.37,2013-07-24 18:39:00,
2013-07-24 20:40:00,79.7,73.7,29.98,West,270,1.0,2.0,82,0.00,CLR,,0.00,WeatherDisplay:10.37,2013-07-24 18:40:00,
2013-07-24 20:44:00,81.7,74.1,29.95,West,270,3.5,3.5,78,0.00,CLR,,0.00,WeatherDisplay:10.37,2013-07-24 18:44:00,
2013-07-24 20:45:00,79.7,79.7,29.98,NNW,330,0.0,0.0,100,0.00,CLR,,0.00,WeatherDisplay:10.37,2013-07-24 18:45:00,
2013-07-24 20:49:00,81.5,74.0,29.95,WNW,292,3.5,3.5,78,0.00,CLR,,0.00,WeatherDisplay:10.37,2013-07-24 18:49:00,
2013-07-24 20:50:00,79.7,79.7,29.98,North,0,0.0,0.0,100,0.00,CLR,,0.00,WeatherDisplay:10.37,2013-07-24 18:50:00,
2013-07-24 20:54:00,81.5,74.0,29.95,SW,225,4.6,4.6,78,0.00,CLR,,0.00,WeatherDisplay:10.37,2013-07-24 18:54:00,
2013-07-24 20:55:00,79.7,79.7,29.98,North,0,0.0,0.0,100,0.00,CLR,,0.00,WeatherDisplay:10.37,2013-07-24 18:55:00,
2013-07-24 20:59:00,81.3,73.8,29.95,West,270,2.3,2.3,78,0.00,CLR,,0.00,WeatherDisplay:10.37,2013-07-24 18:59:00,
2013-07-24 21:00:00,79.7,79.7,29.98,North,0,0.0,0.0,100,0.00,CLR,,0.00,WeatherDisplay:10.37,2013-07-24 19:00:00,
2013-07-24 21:04:00,81.3,73.8,29.95,North,0,3.5,0.0,78,0.00,CLR,,0.00,WeatherDisplay:10.37,2013-07-24 19:04:00,
2013-07-24 21:05:00,79.7,79.7,29.98,North,0,0.0,0.0,100,0.00,CLR,,0.00,WeatherDisplay:10.37,2013-07-24 19:05:00,
2013-07-24 21:09:00,81.3,73.8,29.95,NW,315,3.5,3.5,78,0.00,CLR,,0.00,WeatherDisplay:10.37,2013-07-24 19:09:00,
2013-07-24 21:10:00,79.7,79.7,29.98,North,0,0.0,0.0,100,0.00,CLR,,0.00,WeatherDisplay:10.37,2013-07-24 19:10:00,
2013-07-24 21:15:00,79.0,73.7,29.98,NE,35,1.0,2.0,84,0.00,CLR,,0.00,WeatherDisplay:10.37,2013-07-24 19:15:00,
2013-07-24 21:20:00,79.0,73.7,29.98,SE,135,1.0,2.0,84,0.00,CLR,,0.00,WeatherDisplay:10.37,2013-07-24 19:20:00,
2013-07-24 21:25:00,79.0,73.7,29.98,SE,135,1.0,2.0,84,0.00,CLR,,0.00,WeatherDisplay:10.37,2013-07-24 19:25:00,
2013-07-24 21:30:00,78.6,73.4,29.98,SE,135,0.0,2.0,84,0.00,CLR,,0.00,WeatherDisplay:10.37,2013-07-24 19:30:00,
2013-07-24 21:35:00,78.6,73.4,29.98,SE,135,0.0,2.0,84,0.00,CLR,,0.00,WeatherDisplay:10.37,2013-07-24 19:35:00,
2013-07-24 21:40:00,78.6,73.4,29.98,SE,135,0.0,2.0,84,0.00,CLR,,0.00,WeatherDisplay:10.37,2013-07-24 19:40:00,
2013-07-24 21:45:00,78.3,73.4,29.97,SE,135,0.0,2.0,85,0.00,CLR,,0.00,WeatherDisplay:10.37,2013-07-24 19:45:00,
2013-07-24 21:50:00,78.3,73.4,29.97,SE,135,0.0,2.0,85,0.00,CLR,,0.00,WeatherDisplay:10.37,2013-07-24 19:50:00,
2013-07-24 21:55:00,78.3,73.4,29.97,SE,135,0.0,2.0,85,0.00,CLR,,0.00,WeatherDisplay:10.37,2013-07-24 19:55:00,
2013-07-24 22:00:00,78.1,73.5,29.97,SE,135,0.0,1.0,86,0.00,CLR,,0.00,WeatherDisplay:10.37,2013-07-24 20:00:00,
2013-07-24 22:05:00,78.1,73.5,29.97,SE,135,0.0,1.0,86,0.00,CLR,,0.00,WeatherDisplay:10.37,2013-07-24 20:05:00,
2013-07-24 22:10:00,78.1,73.5,29.97,SE,135,0.0,1.0,86,0.00,CLR,,0.00,WeatherDisplay:10.37,2013-07-24 20:10:00,
2013-07-24 22:15:00,78.1,73.5,29.97,ESE,119,1.0,2.0,86,0.00,CLR,,0.00,WeatherDisplay:10.37,2013-07-24 20:15:00,
2013-07-24 22:20:00,78.1,73.5,29.97,East,90,1.0,2.0,86,0.00,CLR,,0.00,WeatherDisplay:10.37,2013-07-24 20:20:00,
2013-07-24 22:25:00,78.1,73.5,29.97,East,90,1.0,2.0,86,0.00,CLR,,0.00,WeatherDisplay:10.37,2013-07-24 20:25:00,
2013-07-24 22:30:00,77.5,73.0,29.97,East,90,1.0,2.0,86,0.00,CLR,,0.00,WeatherDisplay:10.37,2013-07-24 20:30:00,
2013-07-24 22:35:00,77.5,73.0,29.97,East,90,1.0,2.0,86,0.00,CLR,,0.00,WeatherDisplay:10.37,2013-07-24 20:35:00,
2013-07-24 22:40:00,77.5,73.0,29.97,East,90,1.0,2.0,86,0.00,CLR,,0.00,WeatherDisplay:10.37,2013-07-24 20:40:00,
2013-07-24 22:45:00,77.0,72.5,29.96,ENE,68,1.0,3.0,86,0.00,CLR,,0.00,WeatherDisplay:10.37,2013-07-24 20:45:00,
2013-07-24 22:50:00,77.0,72.5,29.96,NE,45,1.0,3.0,86,0.00,CLR,,0.00,WeatherDisplay:10.37,2013-07-24 20:50:00,
2013-07-24 22:55:00,77.0,72.5,29.96,NE,45,1.0,3.0,86,0.00,CLR,,0.00,WeatherDisplay:10.37,2013-07-24 20:55:00,
2013-07-24 23:00:00,76.8,72.7,29.96,ENE,57,1.0,3.0,87,0.00,CLR,,0.00,WeatherDisplay:10.37,2013-07-24 21:00:00,
2013-07-24 23:05:00,76.8,72.7,29.96,ENE,68,1.0,3.0,87,0.00,CLR,,0.00,WeatherDisplay:10.37,2013-07-24 21:05:00,
2013-07-24 23:10:00,76.8,72.7,29.96,ENE,68,1.0,3.0,87,0.00,CLR,,0.00,WeatherDisplay:10.37,2013-07-24 21:10:00,
2013-07-24 23:15:00,76.3,72.1,29.96,ENE,75,1.0,2.0,87,0.00,CLR,,0.00,WeatherDisplay:10.37,2013-07-24 21:15:00,
2013-07-24 23:20:00,76.3,72.1,29.96,East,90,1.0,2.0,87,0.00,CLR,,0.00,WeatherDisplay:10.37,2013-07-24 21:20:00,
2013-07-24 23:25:00,76.3,72.1,29.96,East,90,1.0,2.0,87,0.00,CLR,,0.00,WeatherDisplay:10.37,2013-07-24 21:25:00,
2013-07-24 23:30:00,76.3,72.1,29.96,ENE,75,1.0,2.0,87,0.00,CLR,,0.00,WeatherDisplay:10.37,2013-07-24 21:30:00,
2013-07-24 23:35:00,76.3,72.1,29.96,ENE,68,1.0,2.0,87,0.00,CLR,,0.00,WeatherDisplay:10.37,2013-07-24 21:35:00,
2013-07-24 23:40:00,76.3,72.1,29.96,ENE,68,1.0,2.0,87,0.00,CLR,,0.00,WeatherDisplay:10.37,2013-07-24 21:40:00,
2013-07-24 23:45:00,76.3,72.5,29.96,ENE,77,0.0,2.0,88,0.00,CLR,,0.00,WeatherDisplay:10.37,2013-07-24 21:45:00,
2013-07-24 23:50:00,76.3,72.5,29.96,East,90,0.0,2.0,88,0.00,CLR,,0.00,WeatherDisplay:10.37,2013-07-24 21:50:00,
2013-07-24 23:55:00,76.3,72.5,29.96,East,90,0.0,2.0,88,0.00,CLR,,0.00,WeatherDisplay:10.37,2013-07-24 21:55:00,